Location: Caltech
(34.1382°N, 118.1253°W)
Time: 03:18:03
(UTC-08:00)

OAO 2 Rocket - Visible Passes

Search period start: 27 February 2017 00:00
Search period end: 09 March 2017 00:00
Orbit: 677 x 746 km, 35.0° (Epoch: 27 February)

Date Brightness Start Highest point End Pass type
(mag) Time Alt. Az. Time Alt. Az. Time Alt. Az.
01 Mar 6.1 05:36:37 10° SSE 05:37:43 11° SE 05:38:50 10° SE visible
03 Mar 5.5 05:23:17 10° SSW 05:26:50 20° SSE 05:30:23 10° ESE visible
04 Mar 5.8 04:27:12 10° S 04:29:24 13° SE 04:31:36 10° ESE visible
05 Mar 4.7 05:11:35 10° SW 05:16:02 32° SSE 05:20:26 10° E visible
06 Mar 5.1 04:17:02 20° S 04:18:32 23° SSE 04:22:24 10° E visible
07 Mar 5.9 03:22:48 13° ESE 03:22:48 13° ESE 03:23:56 10° ESE visible
07 Mar 3.9 05:01:47 18° SW 05:05:18 50° SSE 05:10:07 10° E visible
08 Mar 4.3 04:07:27 36° SSE 04:07:44 36° SSE 04:12:20 10° E visible
08 Mar 3.4 05:47:15 10° WSW 05:52:18 85° S 05:57:17 10° E visible
